QPF
0.01 0.01 0.02 0.02 0.02 0.01 0.01 0.01 0.01 0.02 0.01 0.02 0.01 0.01 0.01 0.01 0.02 0.02 0.02 0.02 0.02 0.02 0.02 0.01 0.01 0.01 0.01 0.01 0.00 0.01 0.01 0.01 0.02 0.02 0.01 0.00 0.00 0.00 0.00 0.00 0.00 0.00 0.00 0.00
0.01 0.01 0.01 0.02 0.02 0.01 0.01 0.01 0.01 0.02 0.01 0.01 0.01 0.01 0.01 0.01 0.01 0.01 0.01 0.01 0.01 0.02 0.01 0.01 0.01 0.01 0.00 0.01 0.01 0.01 0.00 0.01 0.01 0.01 0.01 0.00 0.00 0.00 0.00 0.00 0.00 0.00 0.00 0.00
0.01 0.00 0.01 0.01 0.02 0.02 0.02 0.01 0.01 0.01 0.01 0.01 0.01 0.01 0.00 0.00 0.01 0.01 0.01 0.01 0.01 0.01 0.01 0.01 0.01 0.01 0.00 0.01 0.01 0.00 0.00 0.01 0.01 0.01 0.01 0.00 0.00 0.00 0.00 0.00 0.00 0.00 0.00 0.00
0.01 0.01 0.01 0.02 0.02 0.02 0.02 0.01 0.01 0.01 0.01 0.00 0.00 0.00 0.00 0.00 0.01 0.00 0.00 0.01 0.01 0.01 0.01 0.01 0.01 0.01 0.01 0.00 0.00 0.00 0.01 0.01 0.01 0.01 0.01 0.00 0.00 0.00 0.00 0.00 0.00 0.00 0.00 0.00
0.01 0.01 0.01 0.02 0.01 0.02 0.02 0.02 0.02 0.01 0.00 0.00 0.00 0.00 0.00 0.00 0.00 0.00 0.00 0.00 0.00 0.01 0.01 0.01 0.01 0.01 0.01 0.01 0.00 0.00 0.01 0.01 0.01 0.01 0.01 0.00 0.00 0.00 0.00 0.00 0.00 0.00 0.00 0.00
0.00 0.00 0.01 0.01 0.02 0.03 0.03 0.03 0.03 0.01 0.00 0.00 0.00 0.00 0.00 0.00 0.00 0.00 0.00 0.00 0.00 0.00 0.00 0.01 0.01 0.01 0.01 0.01 0.00 0.00 0.01 0.01 0.01 0.01 0.01 0.01 0.00 0.00 0.00 0.00 0.00 0.00 0.00 0.00
0.01 0.01 0.01 0.01 0.02 0.03 0.03 0.04 0.04 0.02 0.01 0.00 0.00 0.00 0.00 0.00 0.00 0.00 0.00 0.00 0.00 0.00 0.00 0.00 0.00 0.00 0.00 0.00 0.01 0.01 0.01 0.01 0.01 0.02 0.01 0.01 0.00 0.00 0.00 0.00 0.00 0.00 0.00 0.00
0.01 0.01 0.01 0.01 0.01 0.01 0.02 0.04 0.04 0.02 0.00 0.00 0.00 0.00 0.00 0.00 0.01 0.00 0.00 0.00 0.00 0.00 0.00 0.00 0.00 0.00 0.00 0.00 0.01 0.00 0.01 0.01 0.01 0.02 0.02 0.01 0.01 0.00 0.00 0.00 0.00 0.00 0.00 0.00
0.01 0.01 0.01 0.01 0.01 0.01 0.01 0.02 0.03 0.02 0.01 0.00 0.00 0.00 0.00 0.00 0.00 0.00 0.00 0.00 0.00 0.00 0.00 0.00 0.00 0.00 0.01 0.01 0.01 0.00 0.01 0.01 0.02 0.02 0.01 0.01 0.00 0.00 0.00 0.00 0.00 0.00 0.00 0.00
0.00 0.01 0.02 0.02 0.02 0.01 0.01 0.01 0.03 0.02 0.01 0.01 0.00 0.00 0.01 0.01 0.01 0.00 0.00 0.00 0.00 0.00 0.00 0.00 0.00 0.00 0.01 0.01 0.01 0.00 0.01 0.01 0.01 0.02 0.01 0.01 0.00 0.00 0.00 0.00 0.00 0.00 0.00 0.00
0.00 0.01 0.01 0.02 0.01 0.01 0.01 0.01 0.03 0.03 0.01 0.01 0.00 0.01 0.01 0.01 0.01 0.01 0.00 0.00 0.00 0.00 0.00 0.00 0.00 0.00 0.01 0.01 0.01 0.01 0.01 0.01 0.01 0.01 0.02 0.02 0.01 0.01 0.01 0.00 0.00 0.00 0.00 0.00
0.01 0.01 0.00 0.01 0.01 0.01 0.01 0.01 0.02 0.03 0.01 0.01 0.00 0.01 0.01 0.01 0.01 0.01 0.00 0.00 0.00 0.00 0.00 0.01 0.01 0.01 0.01 0.01 0.01 0.01 0.01 0.01 0.01 0.01 0.01 0.01 0.01 0.01 0.01 0.01 0.01 0.01 0.01 0.00
0.01 0.01 0.01 0.00 0.01 0.01 0.00 0.01 0.01 0.03 0.02 0.01 0.00 0.00 0.00 0.00 0.00 0.00 0.00 0.00 0.00 0.00 0.00 0.01 0.01 0.01 0.01 0.01 0.01 0.01 0.01 0.01 0.01 0.01 0.01 0.01 0.00 0.00 0.00 0.00 0.00 0.00 0.00 0.00
0.02 0.01 0.01 0.00 0.00 0.00 0.00 0.00 0.01 0.02 0.01 0.01 0.00 0.00 0.00 0.00 0.00 0.00 0.00 0.00 0.00 0.00 0.00 0.00 0.00 0.01 0.01 0.01 0.01 0.01 0.00 0.01 0.01 0.00 0.01 0.00 0.00 0.00 0.00 0.00 0.00 0.00 0.00 0.00
0.03 0.02 0.01 0.00 0.00 0.00 0.00 0.00 0.01 0.01 0.01 0.01 0.00 0.00 0.00 0.00 0.00 0.00 0.00 0.00 0.00 0.00 0.00 0.00 0.00 0.00 0.00 0.00 0.00 0.01 0.01 0.01 0.00 0.00 0.01 0.01 0.00 0.00 0.00 0.00 0.00 0.00 0.00 0.00
0.02 0.02 0.01 0.01 0.00 0.00 0.00 0.00 0.00 0.01 0.01 0.01 0.00 0.00 0.00 0.00 0.00 0.00 0.00 0.00 0.00 0.00 0.00 0.00 0.00 0.00 0.00 0.00 0.00 0.01 0.01 0.01 0.01 0.01 0.01 0.01 0.00 0.00 0.00 0.00 0.00 0.00 0.00 0.00
0.01 0.01 0.01 0.01 0.00 0.00 0.00 0.00 0.00 0.01 0.00 0.00 0.00 0.00 0.00 0.00 0.00 0.00 0.00 0.00 0.00 0.00 0.00 0.00 0.00 0.00 0.00 0.00 0.00 0.01 0.01 0.01 0.00 0.01 0.01 0.01 0.01 0.00 0.00 0.00 0.00 0.00 0.00 0.00
0.01 0.01 0.01 0.01 0.00 0.00 0.00 0.00 0.00 0.00 0.00 0.00 0.00 0.00 0.00 0.00 0.00 0.00 0.00 0.00 0.00 0.00 0.00 0.00 0.00 0.00 0.00 0.00 0.00 0.01 0.01 0.01 0.00 0.01 0.01 0.01 0.01 0.00 0.00 0.00 0.00 0.00 0.00 0.00
0.01 0.01 0.01 0.01 0.00 0.00 0.00 0.00 0.00 0.00 0.00 0.00 0.00 0.00 0.00 0.00 0.00 0.00 0.00 0.00 0.00 0.00 0.01 0.00 0.00 0.01 0.01 0.00 0.00 0.00 0.00 0.00 0.01 0.00 0.01 0.01 0.01 0.00 0.00 0.00 0.00 0.00 0.00 0.00
0.01 0.01 0.02 0.01 0.01 0.01 0.01 0.00 0.00 0.01 0.01 0.00 0.00 0.00 0.00 0.00 0.00 0.00 0.01 0.01 0.01 0.00 0.00 0.00 0.01 0.01 0.00 0.00 0.00 0.00 0.00 0.00 0.00 0.01 0.01 0.01 0.01 0.01 0.00 0.00 0.00 0.00 0.00 0.01
0.01 0.02 0.01 0.01 0.01 0.01 0.01 0.00 0.00 0.01 0.01 0.00 0.00 0.00 0.00 0.00 0.00 0.00 0.00 0.00 0.00 0.01 0.00 0.01 0.01 0.01 0.01 0.01 0.01 0.00 0.00 0.01 0.01 0.01 0.01 0.01 0.01 0.01 0.01 0.01 0.01 0.01 0.01 0.01
0.01 0.02 0.01 0.01 0.01 0.01 0.01 0.01 0.01 0.01 0.01 0.00 0.00 0.00 0.00 0.00 0.00 0.00 0.00 0.00 0.00 0.00 0.00 0.01 0.01 0.01 0.01 0.01 0.00 0.00 0.01 0.01 0.01 0.01 0.01 0.01 0.01 0.01 0.01 0.01 0.01 0.01 0.01 0.01
0.01 0.01 0.00 0.00 0.01 0.01 0.01 0.01 0.01 0.02 0.02 0.01 0.00 0.00 0.00 0.00 0.00 0.00 0.00 0.00 0.00 0.01 0.01 0.01 0.01 0.01 0.00 0.00 0.00 0.00 0.01 0.01 0.01 0.01 0.01 0.01 0.01 0.01 0.01 0.01 0.01 0.01 0.00 0.00
0.00 0.00 0.00 0.00 0.00 0.00 0.01 0.01 0.01 0.02 0.02 0.01 0.00 0.00 0.00 0.00 0.00 0.00 0.00 0.00 0.00 0.00 0.01 0.01 0.01 0.01 0.01 0.01 0.01 0.00 0.00 0.01 0.01 0.01 0.01 0.01 0.01 0.01 0.00 0.00 0.00 0.00 0.00 0.00
0.00 0.00 0.00 0.00 0.00 0.00 0.00 0.00 0.01 0.02 0.02 0.01 0.00 0.00 0.00 0.00 0.00 0.00 0.01 0.00 0.00 0.00 0.00 0.01 0.01 0.01 0.01 0.01 0.01 0.01 0.01 0.01 0.01 0.01 0.01 0.01 0.01 0.00 0.00 0.00 0.00 0.00 0.00 0.00
0.00 0.00 0.00 0.00 0.00 0.00 0.00 0.00 0.00 0.02 0.02 0.01 0.00 0.00 0.00 0.00 0.00 0.00 0.00 0.00 0.01 0.01 0.01 0.01 0.01 0.01 0.01 0.01 0.01 0.01 0.01 0.01 0.02 0.01 0.01 0.01 0.01 0.01 0.01 0.01 0.00 0.00 0.00 0.00
MSLP
1016.14 1017.11 1017.99 1018.75 1019.39 1019.93 1020.37 1020.73 1021.01 1021.20 1021.27 1021.23 1021.08 1020.84 1020.55 1020.23 1019.96 1019.74 1019.61 1019.57 1019.59 1019.65 1019.71 1019.74 1019.73 1019.68 1019.61 1019.55 1019.52 1019.56 1019.67 1019.84 1020.07 1020.30 1020.52 1020.69 1020.79 1020.82 1020.78 1020.69 1020.58 1020.47 1020.39 1020.32
1016.93 1017.77 1018.48 1019.09 1019.62 1020.09 1020.52 1020.92 1021.28 1021.54 1021.70 1021.70 1021.56 1021.28 1020.91 1020.51 1020.14 1019.86 1019.69 1019.65 1019.71 1019.82 1019.95 1020.04 1020.06 1020.01 1019.92 1019.80 1019.72 1019.71 1019.78 1019.96 1020.21 1020.50 1020.78 1021.03 1021.20 1021.27 1021.25 1021.16 1021.04 1020.90 1020.78 1020.68
1017.48 1018.15 1018.71 1019.18 1019.62 1020.06 1020.52 1021.00 1021.46 1021.84 1022.09 1022.15 1022.02 1021.70 1021.24 1020.74 1020.26 1019.89 1019.67 1019.61 1019.70 1019.87 1020.06 1020.22 1020.28 1020.26 1020.15 1019.99 1019.86 1019.78 1019.82 1019.98 1020.24 1020.57 1020.92 1021.23 1021.47 1021.60 1021.64 1021.58 1021.46 1021.32 1021.18 1021.07
1017.80 1018.32 1018.72 1019.09 1019.48 1019.93 1020.46 1021.05 1021.64 1022.15 1022.49 1022.61 1022.47 1022.09 1021.53 1020.90 1020.29 1019.80 1019.51 1019.42 1019.51 1019.73 1019.99 1020.22 1020.35 1020.36 1020.27 1020.09 1019.92 1019.80 1019.79 1019.91 1020.17 1020.52 1020.91 1021.28 1021.59 1021.80 1021.89 1021.89 1021.82 1021.70 1021.58 1021.48
1017.98 1018.34 1018.63 1018.93 1019.30 1019.80 1020.43 1021.15 1021.88 1022.52 1022.95 1023.09 1022.92 1022.46 1021.77 1020.97 1020.21 1019.58 1019.18 1019.03 1019.13 1019.39 1019.72 1020.04 1020.25 1020.33 1020.27 1020.11 1019.91 1019.76 1019.70 1019.78 1020.01 1020.35 1020.77 1021.19 1021.56 1021.84 1022.02 1022.10 1022.09 1022.04 1021.97 1021.91
1018.09 1018.33 1018.53 1018.79 1019.19 1019.76 1020.50 1021.36 1022.22 1022.96 1023.45 1023.60 1023.36 1022.78 1021.93 1020.96 1020.01 1019.22 1018.70 1018.48 1018.56 1018.85 1019.26 1019.67 1019.99 1020.16 1020.17 1020.04 1019.85 1019.68 1019.59 1019.63 1019.82 1020.14 1020.56 1021.01 1021.43 1021.79 1022.05 1022.22 1022.31 1022.34 1022.34 1022.34
1018.19 1018.33 1018.48 1018.75 1019.19 1019.85 1020.71 1021.68 1022.64 1023.45 1023.96 1024.07 1023.75 1023.03 1022.00 1020.84 1019.70 1018.74 1018.09 1017.80 1017.85 1018.17 1018.65 1019.16 1019.59 1019.87 1019.97 1019.92 1019.77 1019.60 1019.49 1019.49 1019.65 1019.94 1020.34 1020.80 1021.27 1021.69 1022.03 1022.29 1022.48 1022.60 1022.69 1022.76
1018.29 1018.38 1018.52 1018.81 1019.32 1020.06 1021.01 1022.07 1023.09 1023.91 1024.40 1024.44 1024.01 1023.14 1021.94 1020.59 1019.28 1018.18 1017.41 1017.04 1017.06 1017.40 1017.94 1018.55 1019.10 1019.50 1019.71 1019.75 1019.66 1019.53 1019.42 1019.41 1019.53 1019.80 1020.18 1020.64 1021.13 1021.60 1022.01 1022.35 1022.63 1022.84 1023.01 1023.15
1018.38 1018.45 1018.61 1018.95 1019.52 1020.33 1021.33 1022.42 1023.45 1024.24 1024.67 1024.62 1024.07 1023.06 1021.73 1020.23 1018.79 1017.57 1016.71 1016.27 1016.26 1016.61 1017.20 1017.88 1018.53 1019.05 1019.38 1019.53 1019.53 1019.45 1019.38 1019.38 1019.50 1019.74 1020.11 1020.57 1021.07 1021.56 1022.02 1022.42 1022.77 1023.05 1023.28 1023.48
1018.39 1018.50 1018.71 1019.10 1019.72 1020.57 1021.58 1022.65 1023.63 1024.35 1024.68 1024.53 1023.87 1022.77 1021.34 1019.76 1018.23 1016.94 1016.02 1015.55 1015.52 1015.86 1016.47 1017.20 1017.92 1018.53 1018.97 1019.23 1019.33 1019.35 1019.34 1019.38 1019.52 1019.77 1020.13 1020.58 1021.08 1021.59 1022.07 1022.51 1022.89 1023.22 1023.49 1023.72
1018.30 1018.47 1018.75 1019.20 1019.84 1020.68 1021.66 1022.66 1023.53 1024.14 1024.36 1024.11 1023.37 1022.22 1020.75 1019.16 1017.63 1016.34 1015.41 1014.92 1014.86 1015.19 1015.78 1016.53 1017.28 1017.95 1018.47 1018.83 1019.04 1019.16 1019.24 1019.36 1019.54 1019.82 1020.20 1020.65 1021.15 1021.66 1022.15 1022.59 1022.99 1023.33 1023.62 1023.87
1018.10 1018.36 1018.71 1019.19 1019.84 1020.63 1021.52 1022.39 1023.13 1023.59 1023.69 1023.35 1022.58 1021.42 1020.00 1018.47 1017.02 1015.78 1014.90 1014.41 1014.34 1014.62 1015.17 1015.88 1016.62 1017.30 1017.87 1018.31 1018.62 1018.85 1019.04 1019.25 1019.51 1019.84 1020.25 1020.71 1021.21 1021.71 1022.19 1022.64 1023.03 1023.37 1023.66 1023.91
1017.85 1018.19 1018.59 1019.10 1019.71 1020.42 1021.16 1021.87 1022.43 1022.74 1022.72 1022.31 1021.53 1020.43 1019.12 1017.73 1016.41 1015.29 1014.48 1014.03 1013.94 1014.17 1014.65 1015.27 1015.95 1016.60 1017.17 1017.66 1018.05 1018.38 1018.69 1019.00 1019.36 1019.76 1020.22 1020.70 1021.21 1021.70 1022.17 1022.60 1022.99 1023.32 1023.61 1023.87
1017.61 1018.03 1018.47 1018.96 1019.50 1020.08 1020.65 1021.16 1021.52 1021.66 1021.51 1021.06 1020.31 1019.31 1018.16 1016.95 1015.82 1014.86 1014.16 1013.76 1013.66 1013.82 1014.20 1014.71 1015.28 1015.85 1016.40 1016.89 1017.34 1017.76 1018.16 1018.59 1019.04 1019.53 1020.04 1020.56 1021.08 1021.58 1022.04 1022.47 1022.85 1023.18 1023.48 1023.74
1017.49 1017.95 1018.40 1018.84 1019.28 1019.69 1020.07 1020.35 1020.50 1020.46 1020.20 1019.72 1019.02 1018.15 1017.18 1016.19 1015.27 1014.50 1013.93 1013.59 1013.47 1013.56 1013.82 1014.19 1014.62 1015.09 1015.56 1016.03 1016.51 1016.98 1017.48 1018.00 1018.55 1019.11 1019.68 1020.25 1020.79 1021.30 1021.77 1022.20 1022.59 1022.95 1023.27 1023.56
1017.55 1018.03 1018.44 1018.80 1019.10 1019.33 1019.49 1019.54 1019.48 1019.27 1018.91 1018.40 1017.76 1017.03 1016.26 1015.49 1014.80 1014.22 1013.78 1013.49 1013.37 1013.38 1013.50 1013.72 1014.00 1014.34 1014.71 1015.13 1015.59 1016.10 1016.66 1017.26 1017.88 1018.52 1019.14 1019.75 1020.32 1020.85 1021.34 1021.80 1022.22 1022.62 1022.99 1023.33
1017.82 1018.27 1018.61 1018.86 1019.01 1019.05 1018.99 1018.82 1018.55 1018.19 1017.74 1017.22 1016.64 1016.04 1015.45 1014.90 1014.41 1014.00 1013.68 1013.46 1013.31 1013.24 1013.24 1013.30 1013.42 1013.61 1013.87 1014.22 1014.64 1015.16 1015.74 1016.39 1017.06 1017.75 1018.42 1019.07 1019.67 1020.24 1020.77 1021.26 1021.73 1022.18 1022.62 1023.02
1018.25 1018.63 1018.88 1019.00 1018.98 1018.84 1018.59 1018.23 1017.80 1017.31 1016.79 1016.26 1015.74 1015.26 1014.83 1014.45 1014.13 1013.87 1013.65 1013.46 1013.29 1013.15 1013.03 1012.94 1012.91 1012.95 1013.08 1013.33 1013.70 1014.18 1014.77 1015.42 1016.13 1016.84 1017.55 1018.23 1018.87 1019.47 1020.04 1020.59 1021.12 1021.63 1022.13 1022.61
1018.72 1019.01 1019.15 1019.14 1018.98 1018.69 1018.28 1017.78 1017.22 1016.65 1016.08 1015.56 1015.10 1014.71 1014.41 1014.16 1013.98 1013.82 1013.66 1013.50 1013.30 1013.09 1012.85 1012.63 1012.46 1012.36 1012.37 1012.51 1012.80 1013.22 1013.77 1014.42 1015.12 1015.85 1016.57 1017.28 1017.94 1018.58 1019.19 1019.79 1020.37 1020.95 1021.52 1022.05
1019.09 1019.27 1019.30 1019.18 1018.92 1018.52 1018.01 1017.42 1016.80 1016.20 1015.62 1015.13 1014.72 1014.42 1014.20 1014.06 1013.96 1013.86 1013.74 1013.58 1013.35 1013.06 1012.73 1012.39 1012.09 1011.86 1011.75 1011.78 1011.97 1012.32 1012.81 1013.41 1014.09 1014.80 1015.53 1016.24 1016.93 1017.59 1018.24 1018.88 1019.51 1020.14 1020.75 1021.33
1019.22 1019.30 1019.24 1019.04 1018.71 1018.26 1017.72 1017.12 1016.51 1015.92 1015.39 1014.95 1014.60 1014.36 1014.22 1014.13 1014.08 1014.01 1013.90 1013.71 1013.44 1013.09 1012.67 1012.23 1011.82 1011.48 1011.25 1011.17 1011.26 1011.51 1011.92 1012.46 1013.08 1013.76 1014.47 1015.17 1015.87 1016.55 1017.22 1017.89 1018.54 1019.19 1019.82 1020.42
1019.04 1019.03 1018.91 1018.67 1018.32 1017.89 1017.38 1016.84 1016.30 1015.79 1015.34 1014.97 1014.70 1014.52 1014.42 1014.37 1014.33 1014.26 1014.14 1013.92 1013.60 1013.20 1012.71 1012.19 1011.68 1011.24 1010.91 1010.72 1010.69 1010.84 1011.15 1011.59 1012.15 1012.78 1013.44 1014.13 1014.82 1015.51 1016.18 1016.85 1017.51 1018.15 1018.78 1019.36
1018.53 1018.47 1018.30 1018.06 1017.75 1017.39 1016.98 1016.56 1016.15 1015.76 1015.43 1015.16 1014.97 1014.85 1014.78 1014.74 1014.70 1014.62 1014.47 1014.22 1013.86 1013.41 1012.87 1012.29 1011.72 1011.19 1010.76 1010.46 1010.32 1010.35 1010.54 1010.89 1011.35 1011.90 1012.52 1013.16 1013.83 1014.50 1015.16 1015.81 1016.44 1017.06 1017.65 1018.20
1017.77 1017.65 1017.49 1017.28 1017.06 1016.81 1016.55 1016.29 1016.04 1015.82 1015.62 1015.47 1015.37 1015.30 1015.26 1015.23 1015.17 1015.07 1014.89 1014.61 1014.23 1013.75 1013.18 1012.57 1011.94 1011.35 1010.83 1010.43 1010.18 1010.09 1010.16 1010.39 1010.74 1011.20 1011.74 1012.33 1012.95 1013.58 1014.21 1014.82 1015.41 1015.97 1016.51 1016.99
1016.84 1016.72 1016.58 1016.45 1016.33 1016.23 1016.15 1016.08 1016.01 1015.96 1015.91 1015.88 1015.85 1015.84 1015.82 1015.78 1015.72 1015.59 1015.39 1015.10 1014.71 1014.23 1013.66 1013.03 1012.37 1011.73 1011.16 1010.67 1010.31 1010.09 1010.04 1010.13 1010.36 1010.72 1011.16 1011.67 1012.23 1012.80 1013.38 1013.93 1014.46 1014.96 1015.41 1015.83
1015.92 1015.80 1015.72 1015.67 1015.69 1015.75 1015.84 1015.96 1016.07 1016.18 1016.27 1016.34 1016.39 1016.41 1016.41 1016.37 1016.29 1016.15 1015.95 1015.66 1015.28 1014.82 1014.27 1013.65 1013.00 1012.34 1011.72 1011.16 1010.71 1010.37 1010.18 1010.14 1010.24 1010.47 1010.80 1011.22 1011.69 1012.18 1012.68 1013.17 1013.62 1014.04 1014.42 1014.76
Thickness
5711 5698 5689 5694 5698 5697 5693 5687 5684 5690 5702 5698 5693 5693 5699 5704 5705 5703 5704 5705 5707 5711 5716 5719 5721 5721 5721 5721 5721 5721 5720 5720 5720 5718 5717 5716 5715 5716 5717 5717 5717 5717 5717 5716
5696 5691 5701 5705 5703 5699 5693 5686 5685 5691 5701 5697 5691 5692 5700 5703 5704 5706 5706 5706 5708 5710 5713 5716 5718 5718 5719 5718 5718 5718 5718 5718 5718 5718 5716 5715 5714 5713 5714 5714 5714 5714 5714 5714
5691 5697 5708 5704 5698 5694 5691 5686 5687 5688 5694 5695 5691 5687 5694 5703 5707 5709 5710 5710 5710 5711 5711 5713 5715 5716 5716 5716 5717 5718 5717 5717 5717 5716 5715 5714 5712 5711 5710 5710 5710 5711 5711 5711
5694 5703 5704 5698 5695 5695 5686 5697 5695 5691 5682 5675 5685 5669 5688 5697 5701 5706 5708 5709 5711 5713 5714 5713 5714 5714 5715 5716 5717 5717 5716 5715 5715 5715 5714 5712 5709 5706 5706 5706 5707 5708 5708 5708
5693 5701 5699 5695 5698 5700 5694 5699 5693 5688 5680 5673 5677 5670 5681 5695 5695 5703 5709 5711 5713 5714 5715 5715 5715 5716 5716 5716 5716 5715 5714 5714 5713 5713 5712 5710 5707 5706 5705 5705 5705 5705 5705 5705
5698 5707 5706 5703 5705 5705 5700 5691 5684 5677 5670 5661 5674 5669 5676 5689 5701 5709 5713 5715 5716 5716 5717 5716 5717 5716 5715 5715 5714 5713 5712 5711 5711 5711 5710 5709 5707 5705 5703 5702 5702 5701 5701 5701
5690 5697 5705 5708 5698 5697 5693 5674 5659 5656 5651 5657 5676 5672 5682 5708 5715 5719 5719 5719 5719 5718 5717 5715 5715 5714 5713 5713 5713 5712 5711 5710 5710 5709 5708 5708 5706 5704 5702 5701 5700 5699 5698 5697
5676 5677 5697 5704 5699 5690 5686 5678 5658 5651 5649 5658 5672 5671 5694 5718 5724 5726 5726 5724 5721 5718 5718 5717 5717 5715 5714 5713 5712 5711 5709 5709 5708 5708 5707 5706 5705 5703 5701 5700 5699 5697 5696 5696
5676 5678 5701 5706 5707 5698 5683 5676 5678 5663 5661 5657 5665 5681 5701 5719 5720 5722 5723 5722 5720 5719 5719 5718 5717 5716 5715 5713 5712 5711 5709 5708 5707 5706 5705 5704 5703 5702 5700 5699 5698 5696 5695 5695
5689 5680 5693 5702 5703 5698 5693 5681 5668 5661 5653 5651 5664 5675 5685 5708 5713 5718 5719 5720 5720 5721 5720 5719 5717 5716 5715 5715 5713 5711 5710 5708 5707 5705 5704 5703 5702 5701 5699 5697 5696 5695 5694 5693
5695 5681 5684 5691 5690 5686 5684 5679 5671 5661 5660 5653 5654 5673 5707 5712 5718 5718 5721 5723 5723 5722 5721 5720 5718 5717 5716 5714 5712 5710 5708 5706 5705 5704 5703 5701 5699 5698 5697 5695 5694 5693 5692 5691
5693 5679 5671 5683 5697 5701 5694 5686 5675 5664 5660 5658 5658 5675 5720 5720 5722 5723 5723 5724 5725 5724 5723 5721 5719 5717 5714 5712 5711 5709 5707 5705 5704 5703 5701 5699 5697 5695 5694 5692 5691 5690 5689 5688
5692 5676 5663 5667 5677 5690 5690 5687 5683 5674 5662 5655 5658 5680 5719 5720 5722 5724 5725 5725 5725 5724 5722 5719 5717 5715 5713 5712 5710 5709 5707 5705 5704 5701 5699 5697 5695 5693 5691 5690 5689 5688 5687 5685
5700 5678 5670 5666 5674 5684 5686 5688 5684 5676 5662 5660 5669 5685 5708 5716 5719 5722 5724 5725 5724 5723 5721 5719 5716 5715 5714 5712 5711 5709 5707 5705 5703 5700 5697 5695 5693 5691 5690 5688 5687 5685 5684 5682
5697 5680 5681 5684 5691 5691 5691 5691 5687 5682 5680 5674 5684 5690 5705 5715 5720 5724 5724 5723 5722 5721 5720 5719 5717 5716 5714 5711 5710 5708 5706 5704 5702 5699 5696 5694 5692 5689 5687 5685 5684 5682 5681 5680
5690 5682 5681 5682 5689 5689 5688 5692 5690 5689 5688 5686 5691 5696 5714 5719 5721 5722 5723 5722 5721 5721 5722 5721 5720 5717 5715 5713 5711 5708 5706 5703 5701 5697 5695 5692 5689 5687 5684 5683 5681 5679 5677 5675
5680 5678 5671 5668 5681 5683 5677 5690 5692 5692 5693 5693 5690 5702 5715 5716 5719 5722 5723 5724 5725 5725 5724 5723 5722 5721 5719 5717 5714 5710 5707 5703 5699 5696 5694 5691 5688 5685 5682 5680 5677 5675 5673 5672
5677 5671 5662 5662 5670 5661 5684 5703 5702 5697 5699 5701 5704 5710 5715 5719 5723 5726 5727 5726 5726 5727 5727 5726 5724 5722 5720 5717 5714 5711 5706 5701 5698 5695 5692 5690 5687 5683 5680 5677 5674 5672 5670 5668
5680 5670 5657 5652 5655 5665 5685 5699 5699 5695 5697 5707 5706 5711 5715 5719 5721 5722 5729 5730 5731 5731 5730 5729 5727 5724 5721 5717 5714 5709 5703 5699 5696 5693 5691 5689 5686 5681 5677 5674 5671 5669 5666 5664
5670 5669 5657 5650 5654 5656 5680 5702 5706 5700 5690 5708 5709 5710 5711 5712 5703 5713 5728 5729 5730 5730 5728 5727 5725 5722 5719 5716 5713 5707 5702 5698 5696 5694 5691 5688 5684 5680 5676 5673 5669 5666 5664 5661
5658 5654 5651 5648 5652 5662 5687 5699 5700 5679 5686 5709 5710 5710 5709 5707 5711 5720 5725 5726 5727 5727 5725 5724 5722 5719 5718 5715 5711 5705 5701 5699 5698 5694 5689 5685 5682 5678 5674 5670 5667 5663 5660 5656
5655 5649 5646 5644 5648 5660 5692 5691 5686 5690 5704 5707 5708 5708 5709 5711 5715 5718 5721 5722 5723 5722 5721 5720 5717 5715 5714 5712 5709 5704 5700 5700 5694 5690 5685 5681 5678 5675 5671 5666 5662 5659 5655 5651
5655 5660 5658 5659 5665 5682 5688 5691 5697 5699 5700 5703 5704 5707 5708 5709 5710 5712 5714 5715 5716 5717 5715 5714 5712 5709 5708 5707 5706 5702 5699 5694 5690 5685 5681 5677 5673 5670 5667 5662 5658 5653 5650 5647
5654 5659 5657 5659 5669 5678 5684 5689 5693 5696 5698 5702 5704 5705 5705 5704 5705 5706 5707 5707 5708 5709 5709 5708 5706 5703 5702 5701 5700 5699 5695 5691 5686 5680 5675 5671 5668 5664 5661 5658 5654 5650 5646 5642
5651 5651 5652 5655 5665 5673 5681 5684 5688 5692 5695 5697 5699 5700 5699 5699 5699 5699 5699 5700 5701 5702 5702 5702 5700 5699 5697 5696 5694 5692 5689 5686 5680 5675 5670 5666 5663 5659 5655 5652 5650 5648 5646 5643
5644 5647 5648 5653 5664 5664 5672 5681 5685 5686 5688 5690 5691 5692 5693 5694 5693 5694 5693 5694 5695 5695 5695 5694 5693 5692 5691 5690 5688 5685 5683 5681 5676 5669 5665 5662 5657 5653 5649 5645 5642 5642 5640 5638